Temp
-11 -11 -11 -11 -11 -11 -11 -12 -12 -12 -12 -12 -12 -12 -12 -12 -12 -12 -12 -12 -12 -13 -13 -13 -13 -13 -13 -13 -13 -13 -13 -13
-11 -10 -11 -11 -11 -11 -11 -12 -12 -12 -12 -12 -12 -12 -12 -12 -12 -12 -13 -13 -13 -13 -13 -13 -13 -13 -13 -14 -14 -14 -14 -14
-12 -11 -12 -12 -11 -11 -12 -12 -12 -12 -12 -12 -12 -13 -13 -13 -13 -13 -13 -13 -14 -14 -14 -14 -14 -14 -15 -15 -15 -15 -15 -16
-11 -10 -12 -12 -11 -12 -12 -12 -13 -13 -12 -13 -13 -13 -13 -13 -13 -14 -14 -14 -14 -14 -15 -15 -15 -15 -16 -16 -16 -17 -17 -17
-12 -10 -12 -12 -12 -12 -12 -13 -13 -13 -13 -13 -13 -13 -13 -14 -14 -15 -15 -15 -15 -15 -16 -16 -16 -17 -17 -17 -17 -18 -18 -18
-11 -11 -11 -12 -12 -12 -13 -13 -13 -13 -14 -13 -14 -14 -14 -15 -15 -15 -15 -16 -16 -17 -17 -17 -17 -18 -18 -18 -18 -19 -18 -18
-13 -11 -11 -12 -14 -13 -13 -14 -14 -14 -15 -14 -15 -14 -15 -16 -16 -16 -16 -17 -17 -17 -17 -18 -18 -18 -18 -19 -19 -18 -18 -18
-14 -12 -12 -13 -14 -14 -14 -15 -15 -14 -15 -15 -15 -15 -15 -15 -16 -16 -17 -17 -17 -18 -18 -18 -18 -19 -19 -18 -19 -19 -19 -19
-15 -14 -14 -14 -15 -15 -15 -15 -15 -15 -16 -16 -16 -16 -16 -16 -16 -16 -17 -17 -18 -18 -19 -19 -18 -19 -19 -19 -19 -19 -19 -20
-15 -15 -15 -15 -16 -16 -16 -17 -16 -17 -17 -17 -17 -17 -17 -17 -17 -18 -18 -18 -18 -19 -19 -19 -19 -19 -19 -19 -19 -20 -20 -21
-16 -16 -16 -16 -17 -17 -17 -17 -17 -17 -18 -18 -18 -18 -18 -18 -18 -19 -19 -19 -19 -19 -19 -19 -19 -19 -20 -20 -20 -21 -21 -22
-16 -16 -18 -17 -17 -17 -17 -18 -18 -18 -19 -18 -18 -18 -19 -19 -19 -19 -19 -19 -19 -19 -19 -19 -20 -20 -20 -21 -22 -22 -22 -22
-17 -17 -18 -18 -18 -18 -18 -19 -19 -19 -19 -19 -19 -19 -19 -19 -19 -19 -19 -19 -19 -20 -20 -21 -20 -21 -21 -22 -23 -23 -23 -23
-17 -18 -19 -19 -19 -19 -19 -19 -20 -20 -20 -20 -18 -19 -20 -19 -20 -20 -20 -20 -20 -21 -21 -21 -21 -21 -22 -23 -23 -23 -23 -23
-18 -18 -19 -19 -19 -19 -19 -20 -19 -20 -20 -20 -19 -19 -19 -20 -20 -21 -21 -21 -21 -21 -21 -21 -22 -23 -23 -24 -24 -24 -24 -24
-20 -20 -19 -20 -20 -20 -20 -20 -20 -21 -20 -21 -20 -19 -20 -19 -20 -21 -21 -22 -22 -22 -22 -22 -24 -24 -24 -24 -24 -24 -24 -24
-21 -21 -21 -20 -21 -21 -21 -21 -21 -21 -21 -21 -20 -20 -21 -21 -21 -22 -23 -22 -23 -23 -24 -25 -25 -25 -24 -25 -25 -25 -25 -24
-21 -21 -22 -22 -21 -21 -21 -21 -21 -21 -21 -22 -22 -22 -22 -22 -22 -22 -23 -24 -23 -24 -25 -25 -25 -25 -25 -25 -25 -25 -25 -25
-22 -22 -23 -23 -24 -23 -23 -24 -23 -23 -23 -23 -22 -22 -23 -23 -23 -23 -24 -23 -24 -25 -25 -25 -25 -25 -25 -25 -25 -25 -25 -25
Height
5780 5776 5781 5781 5780 5784 5782 5782 5783 5782 5782 5781 5780 5780 5779 5777 5776 5775 5774 5772 5770 5767 5766 5763 5761 5759 5757 5756 5754 5752 5750 5747
5770 5771 5774 5775 5774 5776 5776 5776 5775 5774 5773 5773 5772 5771 5769 5767 5766 5764 5762 5761 5758 5756 5753 5750 5748 5744 5742 5740 5738 5737 5736 5733
5758 5762 5767 5765 5765 5767 5767 5768 5767 5766 5764 5762 5761 5760 5758 5756 5754 5752 5750 5748 5746 5743 5740 5737 5734 5731 5729 5727 5724 5723 5723 5719
5751 5754 5757 5755 5755 5756 5757 5757 5756 5755 5753 5753 5751 5748 5747 5745 5742 5742 5738 5736 5734 5731 5727 5724 5721 5719 5717 5715 5712 5709 5707 5705
5743 5744 5748 5747 5745 5746 5747 5747 5745 5743 5742 5741 5738 5736 5735 5732 5733 5727 5725 5722 5719 5717 5714 5711 5709 5706 5705 5702 5699 5697 5695 5693
5729 5737 5737 5738 5735 5736 5735 5735 5733 5730 5729 5727 5724 5723 5721 5720 5718 5715 5711 5709 5706 5703 5701 5698 5696 5694 5692 5690 5687 5686 5683 5682
5715 5724 5727 5728 5722 5724 5722 5721 5721 5720 5715 5714 5710 5708 5707 5706 5702 5700 5698 5695 5692 5690 5688 5686 5683 5682 5681 5678 5677 5674 5671 5668
5705 5712 5715 5716 5714 5712 5711 5707 5705 5706 5702 5700 5695 5694 5694 5690 5687 5687 5684 5681 5679 5677 5675 5674 5671 5670 5670 5667 5663 5661 5658 5656
5692 5692 5696 5698 5699 5699 5696 5692 5690 5690 5687 5684 5682 5681 5679 5677 5673 5671 5670 5668 5666 5665 5664 5663 5660 5658 5657 5655 5651 5648 5646 5643
5684 5677 5683 5683 5682 5682 5680 5678 5676 5676 5674 5672 5670 5667 5664 5661 5659 5657 5656 5655 5654 5653 5652 5650 5647 5645 5643 5641 5638 5635 5633 5629
5677 5671 5666 5667 5668 5669 5668 5664 5663 5662 5659 5658 5656 5652 5650 5648 5646 5645 5644 5643 5641 5640 5639 5637 5635 5634 5631 5628 5626 5621 5620 5615
5664 5658 5654 5653 5653 5654 5655 5650 5650 5648 5646 5643 5641 5640 5637 5637 5636 5633 5632 5631 5630 5628 5627 5624 5623 5621 5619 5615 5612 5609 5606 5603
5648 5645 5641 5640 5640 5640 5640 5638 5636 5636 5632 5632 5630 5629 5627 5625 5624 5620 5619 5616 5615 5615 5614 5612 5610 5609 5608 5604 5601 5598 5594 5590
5634 5631 5627 5626 5627 5627 5627 5625 5625 5624 5622 5621 5618 5616 5616 5614 5611 5608 5605 5603 5604 5603 5602 5601 5599 5598 5595 5593 5589 5585 5581 5578
5618 5619 5614 5611 5612 5613 5612 5612 5612 5611 5609 5609 5609 5606 5604 5603 5602 5597 5595 5595 5594 5592 5590 5589 5589 5586 5584 5581 5577 5574 5570 5567
5603 5604 5604 5599 5597 5598 5595 5596 5597 5597 5597 5598 5596 5594 5591 5592 5591 5588 5586 5584 5580 5579 5578 5578 5576 5574 5573 5569 5566 5562 5559 5556
5591 5589 5588 5589 5587 5584 5585 5585 5583 5584 5586 5584 5582 5579 5581 5582 5578 5576 5573 5571 5569 5570 5567 5566 5565 5564 5561 5558 5556 5552 5549 5546
5577 5576 5574 5566 5567 5570 5567 5568 5568 5567 5567 5569 5568 5568 5569 5567 5566 5564 5561 5560 5557 5556 5556 5557 5555 5553 5550 5548 5546 5544 5540 5534
5561 5560 5559 5557 5553 5554 5555 5552 5553 5552 5553 5553 5553 5553 5552 5553 5552 5553 5547 5549 5546 5545 5547 5547 5545 5542 5540 5538 5536 5534 5530 5525
Wind_Speed
33 39 30 32 35 31 34 35 36 36 36 37 38 40 42 44 46 47 47 48 49 49 50 52 53 54 55 57 57 57 56 57
37 37 32 33 38 35 37 39 39 40 42 42 43 44 47 49 50 51 51 51 53 53 54 56 58 60 60 58 57 58 57 59
42 36 31 37 41 40 40 39 40 43 47 49 49 50 52 52 54 55 55 55 55 57 57 59 61 60 59 57 55 57 57 53
41 39 31 37 42 43 43 43 44 49 53 53 54 55 55 56 56 55 57 57 59 61 61 61 61 61 57 55 53 52 50 49
41 42 35 37 41 43 45 47 48 51 54 55 58 58 59 60 57 59 59 60 61 61 62 62 60 58 56 52 49 48 47 45
48 46 46 41 44 46 46 49 50 54 53 58 59 60 62 59 60 61 62 62 61 61 61 59 57 54 48 49 42 39 44 42
48 50 48 46 44 50 49 50 52 55 56 60 60 64 63 61 63 63 62 60 60 60 60 54 49 47 48 41 40 40 42 46
55 57 56 53 50 53 52 51 52 55 56 58 61 62 60 60 61 60 60 61 59 55 49 50 48 45 41 43 42 44 47 51
54 59 56 52 52 52 53 52 54 55 56 59 60 58 58 59 58 59 59 56 53 49 45 48 54 43 43 44 45 48 51 51
56 58 57 55 50 47 46 48 52 50 51 53 53 53 53 56 56 56 53 51 48 50 47 49 53 50 46 46 49 51 50 51
56 51 51 47 48 50 52 50 53 50 51 49 50 52 54 54 52 48 47 48 53 48 50 52 51 49 46 48 48 48 50 47
58 57 52 53 53 54 52 50 50 47 41 44 48 48 48 47 46 47 47 48 56 59 55 48 44 46 51 50 48 47 45 44
56 55 54 53 53 51 48 43 42 39 43 42 42 40 38 41 42 49 57 50 52 53 52 43 45 49 53 50 44 41 42 43
61 60 56 53 49 46 42 40 40 40 40 40 41 51 56 57 53 40 44 52 49 43 43 45 45 53 51 42 41 40 40 41
57 57 54 53 51 47 44 43 43 41 37 33 40 44 47 42 39 38 45 44 50 45 47 47 53 46 40 40 38 36 36 40
50 50 49 49 50 47 47 45 45 45 40 37 52 58 52 55 44 44 50 47 47 47 47 47 39 38 39 39 38 39 44 47
47 52 53 53 58 59 53 51 48 40 41 40 57 53 44 39 40 42 35 42 41 32 37 33 36 38 39 38 40 42 42 44
63 55 41 45 48 44 45 46 46 48 51 39 42 39 48 51 48 43 46 37 44 36 35 35 38 39 39 42 42 42 40 43
44 40 38 39 43 42 41 41 42 40 37 43 50 52 47 47 51 47 46 44 36 37 37 37 39 38 38 40 44 40 40 41
Wind_Direction
255 265 266 269 269 266 265 267 268 268 270 271 273 277 281 283 283 285 285 286 288 289 289 289 289 291 291 290 289 288 288 289
266 261 266 268 269 268 268 269 267 268 270 273 277 281 282 282 285 286 287 287 288 290 290 291 292 291 289 289 289 287 288 289
275 277 271 269 270 270 269 270 271 272 274 276 280 282 281 283 284 286 288 288 288 287 288 288 287 287 288 289 288 289 288 290
270 275 271 269 273 272 272 270 270 272 274 277 278 278 279 280 281 284 283 285 287 286 285 286 286 287 287 288 289 291 290 288
270 271 276 273 273 275 276 274 271 272 275 275 276 277 279 279 282 280 283 283 283 284 285 285 286 286 288 290 291 291 292 286
269 273 274 275 276 278 275 273 273 274 273 274 275 276 279 279 279 280 281 282 282 282 283 283 284 286 289 293 292 294 298 297
272 270 275 276 274 275 272 273 275 277 275 276 275 278 278 277 277 278 279 280 280 281 282 283 281 280 293 297 300 296 293 289
277 280 279 277 277 277 279 278 276 275 275 276 274 278 277 275 274 277 277 278 281 280 278 280 279 283 303 298 294 291 288 286
274 279 279 278 276 272 272 273 274 275 271 273 274 275 277 277 276 274 277 278 277 278 280 280 283 284 302 297 291 287 287 286
263 270 275 275 279 280 277 273 275 273 273 274 277 277 276 274 274 274 272 273 274 279 277 280 273 293 298 287 287 288 286 285
267 272 275 275 276 279 280 280 280 279 277 277 274 269 269 269 270 272 274 274 275 278 276 274 279 293 287 287 285 287 286 289
271 275 277 278 281 284 284 282 281 279 276 271 268 270 268 270 271 270 275 273 268 271 273 281 286 287 288 286 286 287 291 291
271 272 278 281 282 282 283 281 279 276 273 276 275 277 281 274 272 269 268 265 267 265 276 284 287 288 286 286 287 290 293 293
272 277 279 281 284 282 279 274 279 282 283 285 285 276 270 268 263 265 267 264 270 278 285 286 286 284 284 285 289 292 295 297
276 278 281 282 282 279 278 277 279 277 269 267 266 256 252 261 274 260 264 266 282 277 284 286 285 282 282 285 290 291 296 303
272 272 274 277 278 280 281 281 279 278 265 265 263 255 253 274 277 265 271 270 268 272 277 278 277 281 283 287 289 289 297 301
271 277 278 276 280 283 282 282 275 261 266 262 259 270 269 266 266 265 263 256 264 282 280 279 282 283 287 290 292 299 301 302
287 291 284 279 284 279 274 273 272 272 277 263 258 263 259 257 252 259 260 276 280 280 286 285 279 284 287 291 293 298 300 304
288 284 276 270 272 270 267 271 267 266 260 253 251 253 260 258 259 261 268 276 280 288 285 280 280 287 288 290 295 294 301 303